SCP
-0 0 0 -0 -0 -0 0 0 0 0 0 0 0 -0 0 0 0 -0 -0 -0 -1 -0 -0 -0 -0 -0 -0 -0 -0 -0 -0 -0 -0 -0 -0 -0 -0 -0 -0 -0 -0 -0 0 0 -0 -0 -0 -0 -0
0 0 0 0 -0 -0 -0 0 -0 -0 -0 -0 -0 -0 0 0 -0 -0 -0 -0 -1 -0 -0 -0 -0 -0 -0 -0 -0 -0 -0 0 -0 -0 -0 -0 -0 -0 -0 -0 -0 -0 -0 -0 -0 -0 -0 -0 0
0 0 0 0 0 -0 -0 -0 0 0 -0 0 0 -0 -0 -0 -0 -0 -0 -0 -0 -0 -0 -0 -1 -0 -0 -0 -0 -0 -0 0 0 -0 -0 -0 -0 -0 -0 -0 -0 -0 0 -0 -0 -0 -0 -0 -0
0 0 0 0 0 -0 -0 -0 -0 0 0 -0 0 0 -0 0 -0 -0 -1 -0 -0 -0 -0 -0 -0 -0 -0 -0 -0 -0 -0 0 0 0 -0 -0 -0 -0 -0 -0 -0 -0 -0 -0 0 -0 0 -0 -0
0 0 0 0 0 0 0 0 -0 -0 0 0 -0 0 -0 0 -1 -1 -0 -0 -0 -0 -0 -0 -0 -0 -0 -0 -0 -0 -0 -0 0 0 -0 -0 -0 -0 -0 -0 -0 -0 -0 -0 -0 -0 -0 -0 -0
0 0 0 0 0 -0 0 0 0 0 0 0 0 0 0 -0 -0 -0 -0 -0 -0 -0 0 -0 -0 -0 -0 -0 -0 -0 -0 -0 -0 0 -0 -0 -0 -0 -0 -0 -0 -0 -0 -0 -0 -0 -0 -0 -0
0 0 0 0 0 0 0 0 0 0 0 0 -0 0 0 0 0 -0 -0 -0 -0 -0 -0 0 0 0 -0 -0 -0 -0 -0 -0 -0 0 -0 -0 -0 -0 -0 -0 -0 -0 -0 -0 -0 -0 -0 -0 -0
0 0 -0 0 0 0 0 0 -0 0 0 0 0 0 0 -0 0 0 -0 -1 -0 -0 -0 0 0 0 0 0 0 0 0 0 0 0 0 -0 -0 -0 -0 -0 -0 -0 -0 -0 -0 -0 -0 -0 -0
0 -0 0 0 -0 0 0 0 0 0 0 0 0 0 -0 0 -0 0 0 -0 -0 0 -0 0 0 0 0 0 0 0 0 0 0 0 0 0 -0 -0 -0 -0 -0 -0 -0 -0 -0 -0 -0 -0 -0
0 0 0 -0 0 0 0 0 0 -0 0 0 0 0 0 0 0 0 0 -0 -0 -0 0 0 0 0 0 0 0 0 0 0 0 0 0 0 -0 -0 -0 -0 0 -0 -0 -0 -0 -0 -0 -0 -0
0 0 0 -0 0 0 0 0 -0 -0 -0 -0 0 0 0 0 -0 0 -0 0 -0 -0 0 0 0 0 0 0 0 0 0 0 0 0 0 0 0 -0 0 0 0 -0 -0 -0 -0 -0 -0 -0 -0
0 0 -0 0 0 0 0 0 0 -0 -0 -0 0 0 0 -0 -0 0 0 0 0 -0 -0 -0 -0 0 0 0 0 0 0 0 0 0 0 0 0 0 0 0 0 0 -0 -0 -0 -0 -0 0 0
0 0 0 0 0 0 0 0 0 0 -0 -0 -0 0 -0 -0 -0 0 -0 0 0 0 0 0 -0 0 0 0 0 0 0 0 0 0 0 0 0 0 0 0 0 0 0 -0 -0 -0 -0 -0 -0
0 0 0 0 0 0 0 0 0 0 0 -0 0 0 0 0 0 0 0 0 0 0 0 0 0 0 0 0 0 0 0 0 0 0 0 0 0 0 0 0 0 0 0 0 0 0 0 -0 0
0 0 0 0 -0 0 0 0 0 -0 0 0 0 -0 0 -0 -0 0 0 1 -0 -0 0 0 0 0 0 1 1 0 0 0 0 0 0 0 0 0 0 0 0 0 0 0 0 0 0 0 0
-0 -0 0 -0 0 0 -0 0 -0 0 0 0 0 -0 0 -0 0 0 0 0 0 0 0 -1 0 1 0 2 3 2 1 1 0 0 0 0 0 0 0 0 0 0 0 0 0 0 0 0 0
0 -0 -0 0 0 0 0 0 0 0 0 0 0 0 0 0 0 -0 0 0 0 0 0 1 0 0 0 1 2 2 1 1 1 1 1 0 0 0 0 0 0 0 0 0 0 0 0 0 0
-0 -0 -0 0 0 0 0 0 -0 0 0 1 0 0 0 0 0 0 0 0 0 0 0 0 0 0 0 -0 0 2 1 1 1 1 1 1 0 0 0 0 0 0 0 0 0 0 1 0 0
0 0 -0 -0 0 0 0 0 0 0 1 0 0 0 0 0 0 0 0 -0 0 0 0 0 0 0 0 0 -0 1 1 1 1 0 0 1 1 1 1 0 0 0 0 0 0 0 2 0 0
-0 -0 0 0 0 0 0 0 0 -0 0 0 0 -0 0 0 0 0 0 0 -0 0 0 0 0 0 0 0 1 1 1 1 1 1 1 1 1 2 2 1 1 0 0 1 1 2 1 1 0
0 0 0 0 0 0 0 0 -0 0 0 0 0 0 0 0 0 0 0 0 0 0 0 0 0 0 0 0 0 1 2 1 1 1 1 1 1 2 3 2 1 1 1 2 2 1 0 0 0
0 0 0 0 0 0 0 0 -0 0 0 0 0 0 0 0 0 0 0 0 0 0 0 0 0 0 0 0 0 0 0 0 0 0 0 0 1 0 0 1 2 2 2 1 0 1 0 0 0
0 0 0 0 0 0 0 0 0 0 0 0 0 0 0 0 0 0 0 0 0 0 0 0 0 0 0 0 0 0 0 0 0 0 0 0 0 0 0 0 0 0 0 0 0 0 -0 -0 0
0 0 0 0 0 0 -0 0 0 0 0 0 0 0 0 0 0 -0 0 0 0 0 0 0 0 0 0 0 0 0 0 0 0 0 0 0 0 0 0 0 0 0 0 0 0 0 0 0 0
0 0 0 0 0 0 0 0 0 0 0 0 0 0 0 0 0 0 0 0 0 0 0 0 0 0 0 0 0 0 0 0 0 0 0 0 0 0 0 0 0 0 0 0 0 0 0 0 0
0 0 0 0 0 0 -0 0 0 0 0 0 0 0 0 0 -0 -0 -0 -0 0 0 0 0 0 0 0 0 0 0 0 0 0 0 0 0 0 0 0 0 0 0 0 0 0 0 0 0 -0
0 0 0 0 0 0 0 0 0 0 0 0 0 0 -0 -0 -0 -0 -0 0 0 0 0 0 0 0 0 0 0 0 0 0 0 0 0 0 0 0 0 0 0 0 0 0 0 0 0 0 -0
0 0 0 0 0 0 0 0 0 0 0 0 0 0 -0 -0 -0 0 0 0 -0 -0 0 0 0 0 0 0 0 0 0 0 0 0 0 0 0 0 0 0 0 0 0 0 0 0 0 0 0
0 0 0 0 0 0 0 0 0 0 0 0 0 0 0 0 0 0 0 0 0 0 0 0 0 0 0 0 0 0 0 0 0 0 0 0 0 0 0 0 0 0 0 0 0 0 0 0 0
0 0 0 0 0 0 0 0 0 0 0 0 -0 0 0 0 0 0 0 0 0 0 0 0 0 0 0 0 0 -0 0 0 0 0 0 0 0 0 0 0 0 0 0 0 0 0 0 0 0
Wind_Speed_500mb
28 23 18 30 6 10 6 13 9 17 8 37 42 34 18 13 9 13 51 45 40 51 49 44 39 36 30 29 29 28 27 25 25 25 26 24 23 21 20 21 22 23 25 29 30 30 30 32 37
18 14 7 10 7 3 11 13 18 14 39 69 57 41 18 20 43 47 58 43 45 49 48 44 39 37 32 29 28 28 26 25 24 24 23 21 20 19 17 16 17 18 20 22 23 24 25 27 24
12 6 4 7 7 11 11 13 28 32 31 42 19 35 17 29 45 29 48 46 51 50 46 43 39 36 34 32 30 27 25 23 22 21 19 18 16 15 14 13 13 13 15 16 18 18 18 16 13
10 6 11 2 19 20 17 19 41 11 38 46 49 14 13 19 39 39 54 42 52 54 46 42 38 36 33 31 29 27 25 23 20 19 17 15 14 12 11 9 8 9 11 13 14 14 14 11 9
14 13 4 8 19 7 14 29 9 3 30 57 56 17 19 24 40 51 50 41 44 55 49 43 38 37 34 31 29 26 23 21 19 17 16 15 13 12 10 8 6 5 8 13 14 14 12 12 10
13 6 8 10 18 11 9 15 12 15 31 58 51 30 20 41 54 51 38 27 48 54 50 45 40 37 34 31 29 27 23 21 18 16 15 14 14 13 11 10 8 4 4 11 14 14 14 12 11
13 2 14 16 16 7 10 12 12 9 39 26 40 14 33 49 58 48 28 32 33 45 50 46 43 39 35 32 29 26 23 21 18 16 14 14 13 13 13 12 11 7 4 7 12 13 12 12 11
26 4 15 12 1 4 8 7 9 38 20 43 35 8 31 57 52 47 46 40 31 30 40 47 46 43 40 36 32 28 24 21 18 16 14 13 13 12 13 13 14 12 7 6 10 12 12 11 11
32 9 13 13 23 11 31 20 52 53 58 56 46 44 35 51 58 49 60 43 40 32 29 48 47 44 42 38 34 31 27 23 19 16 13 11 12 15 15 15 11 15 15 15 12 12 14 18 22
10 5 14 6 12 14 33 36 24 32 48 34 42 28 17 41 46 53 62 54 43 36 28 41 47 46 44 41 39 35 31 26 22 19 16 13 14 12 10 7 7 11 16 23 27 25 22 22 14
34 13 12 13 36 33 29 35 25 41 10 51 74 74 8 35 47 53 57 61 51 39 35 27 41 43 44 44 40 38 36 34 31 26 22 20 14 10 3 5 11 8 10 19 21 16 11 4 5
11 24 15 12 28 25 16 21 20 26 30 47 63 68 45 51 51 54 60 62 55 44 41 34 28 31 34 38 33 30 36 35 35 33 29 29 24 16 12 9 11 5 5 8 11 12 11 4 4
7 6 29 13 13 11 15 19 17 10 45 49 44 29 36 40 34 50 49 59 44 33 46 39 44 38 32 35 31 31 25 39 30 30 26 28 33 26 22 19 15 18 14 9 9 13 14 4 7
17 17 21 6 13 10 3 8 9 32 46 45 40 39 40 43 22 23 43 15 9 54 58 55 60 49 44 40 49 45 32 23 28 21 20 17 21 31 33 26 26 24 26 27 20 17 19 12 10
17 11 19 20 20 4 15 12 18 35 50 47 36 56 57 58 57 50 32 50 49 47 45 57 79 57 57 52 37 42 35 28 28 31 27 29 28 24 38 38 39 31 33 26 30 20 34 31 21
5 7 11 24 20 15 15 16 27 50 35 29 39 52 50 56 53 47 34 48 38 27 44 62 68 57 55 51 60 43 41 39 39 43 41 40 41 37 34 49 47 43 43 42 41 41 27 30 34
8 15 14 12 23 12 10 9 15 33 45 51 61 54 45 47 53 54 44 40 44 48 28 33 29 42 56 51 48 60 60 57 56 49 52 48 48 51 50 47 50 49 47 49 46 46 40 38 42
10 8 16 18 10 9 2 12 11 23 37 55 58 51 44 45 51 52 48 42 38 36 24 28 34 20 37 48 49 48 67 68 70 62 61 55 55 59 60 57 50 59 56 55 55 50 41 42 40
11 13 14 7 11 11 8 8 21 1 53 50 54 55 42 40 35 37 45 53 39 34 31 6 14 9 37 39 57 59 50 59 83 79 64 70 65 57 65 66 56 53 62 54 54 54 55 53 49
10 12 17 8 21 14 10 13 19 19 35 50 54 50 40 32 34 35 38 46 54 45 31 24 17 5 14 41 45 43 42 45 53 60 59 66 73 61 64 70 61 55 58 54 54 53 62 61 55
8 14 14 8 14 17 11 17 16 27 56 61 59 46 42 40 35 35 37 44 46 47 46 35 23 18 23 47 49 43 37 43 47 50 63 74 73 78 73 66 65 61 53 56 54 53 57 60 57
8 17 20 20 16 5 12 11 8 31 32 43 52 48 39 34 33 28 28 36 43 46 43 40 34 26 23 23 36 42 39 43 35 33 43 62 61 64 25 33 74 60 58 50 45 45 43 63 67
5 16 14 11 15 10 22 3 11 36 27 28 44 47 35 29 23 22 23 28 32 37 40 38 34 27 22 32 35 40 34 26 29 35 48 43 28 30 35 73 49 48 56 59 55 36 71 78 59
10 8 15 13 6 5 40 16 10 13 32 24 41 43 33 23 21 15 14 9 17 26 35 38 39 35 33 27 22 27 30 39 36 37 31 20 21 9 25 39 38 61 59 54 57 48 39 36 34
7 10 7 10 6 15 20 5 8 23 31 40 37 42 32 21 17 7 3 12 16 20 24 25 29 33 34 36 32 26 25 25 29 36 35 24 18 18 19 8 14 28 14 17 23 48 40 36 35
8 4 8 6 7 12 19 8 5 30 50 52 51 40 28 22 18 11 8 14 17 17 13 17 22 24 28 30 27 26 27 25 26 28 32 31 27 24 21 18 12 10 5 10 10 18 35 46 27
7 5 6 1 7 5 7 8 10 25 26 41 45 44 35 34 31 26 13 6 4 8 10 15 18 20 19 22 23 27 29 31 32 30 29 28 25 25 22 19 15 12 12 16 13 8 17 26 33
13 4 8 6 4 6 7 1 10 15 15 27 31 44 41 36 35 27 12 7 6 6 9 7 5 8 12 15 23 33 37 37 35 33 32 31 26 24 21 19 19 15 13 8 12 11 13 18 17
8 2 4 3 4 5 3 10 11 16 13 14 11 53 50 40 35 28 18 16 10 6 7 8 6 2 14 21 26 31 36 42 44 42 39 34 29 26 19 18 17 16 10 9 8 9 6 5 1
11 5 6 9 10 4 5 10 12 18 24 20 25 19 46 42 37 35 28 24 11 4 8 4 7 5 3 9 15 23 28 35 42 41 39 40 37 33 27 20 17 15 11 12 10 12 15 11 7
Wind_Direction_500mb
299 300 312 300 33 75 248 232 198 243 171 115 91 95 83 340 87 145 157 168 159 151 148 147 144 139 138 135 129 127 126 123 121 118 116 114 112 109 105 105 106 105 107 117 121 121 120 115 109
302 306 274 241 125 293 275 291 273 237 108 110 98 107 75 55 110 139 154 157 157 153 150 148 145 141 140 138 132 132 129 127 124 123 120 118 115 111 109 110 114 117 118 124 130 133 131 119 113
319 327 278 157 186 186 224 231 243 267 121 116 96 99 104 113 128 145 161 154 162 153 152 149 147 144 144 142 137 135 131 128 125 125 122 116 114 113 112 112 117 129 135 139 143 150 155 154 132
350 248 249 149 253 254 186 221 236 160 124 120 117 85 86 115 152 165 155 160 164 153 155 152 150 146 145 143 139 137 133 129 125 123 118 115 112 109 108 110 119 136 158 165 166 163 161 162 164
300 269 248 265 265 253 170 200 312 339 130 112 106 116 98 112 160 159 158 162 169 154 156 156 155 151 150 147 142 137 132 129 125 120 119 117 109 101 96 96 108 138 168 181 186 187 181 173 165
280 257 3 277 281 236 79 60 7 352 135 112 107 106 94 130 149 152 159 166 173 159 160 161 159 157 154 153 149 146 140 132 127 123 118 109 100 90 84 77 76 94 157 182 186 194 200 198 190
228 53 243 267 284 9 109 95 1 49 65 99 127 102 127 140 148 149 154 163 146 163 167 167 165 164 162 161 159 155 152 147 140 133 122 110 99 85 72 71 74 76 118 172 185 188 194 200 200
253 142 314 310 202 158 95 89 34 54 34 101 81 89 140 149 155 152 160 166 169 175 182 175 174 172 171 170 169 167 167 165 159 152 141 126 109 92 79 84 78 73 88 142 172 176 174 173 163
275 27 299 293 28 332 31 56 66 83 77 82 87 113 137 154 157 159 163 172 181 187 198 187 182 180 179 178 179 180 181 180 178 171 163 146 134 100 105 88 95 94 96 101 119 137 145 142 141
169 146 253 295 49 17 7 33 31 89 91 78 85 100 94 157 166 166 168 173 194 194 192 202 193 188 187 188 190 189 192 193 192 189 182 172 169 152 97 48 61 106 113 110 109 115 123 134 136
253 217 254 49 45 27 349 20 0 109 53 131 128 110 347 184 186 179 183 182 198 209 213 206 203 199 198 195 199 202 202 203 204 203 198 193 204 193 130 357 86 101 137 129 122 120 124 165 228
264 275 315 347 51 13 346 16 335 84 152 137 144 161 173 197 191 199 193 188 187 205 216 213 218 200 207 212 197 213 222 219 216 216 205 200 207 208 196 240 171 134 140 118 160 166 180 328 213
181 326 307 28 9 330 331 348 316 77 140 145 155 164 170 186 237 324 229 186 166 171 207 223 221 211 212 220 215 223 238 231 221 230 219 201 194 201 220 238 212 235 238 224 190 197 191 210 166
3 357 343 10 288 299 182 291 286 279 164 157 165 168 120 98 193 323 25 182 231 195 198 215 223 218 203 220 225 228 237 241 215 228 226 224 218 211 214 229 243 237 243 255 260 242 227 223 261
5 6 319 282 249 159 81 323 268 262 155 159 177 101 86 86 90 85 99 70 209 219 238 222 211 215 200 207 219 222 228 253 232 238 249 241 242 238 215 220 222 226 237 243 251 252 238 235 266
274 272 255 266 203 161 118 274 261 238 123 103 73 73 52 47 54 56 64 56 75 191 231 204 214 213 217 209 212 215 210 220 231 231 239 243 244 251 248 224 224 217 219 215 226 236 229 240 257
283 242 233 311 135 146 148 275 5 122 116 91 78 66 49 34 30 29 31 21 11 40 159 186 192 195 202 218 224 233 225 224 221 219 227 238 246 249 248 249 236 223 222 224 231 230 239 243 252
333 292 309 148 178 112 33 305 322 149 114 96 86 74 56 37 23 13 16 20 0 4 19 187 200 224 317 251 235 240 242 236 230 228 228 234 245 249 250 251 250 228 223 227 228 229 226 244 254
326 343 338 83 141 117 130 275 289 175 105 94 84 74 60 40 26 19 13 18 12 358 15 315 314 287 242 259 253 242 251 256 246 244 248 236 241 250 247 252 252 232 224 231 235 236 237 239 249
345 324 305 7 20 56 16 290 284 78 99 94 90 77 64 53 41 28 18 18 11 16 13 9 14 239 222 226 248 252 263 276 262 257 258 247 242 246 242 250 248 246 239 234 235 240 231 231 242
4 36 8 17 4 347 352 292 258 100 103 95 86 82 67 59 51 34 22 19 14 18 16 13 351 346 216 224 235 242 255 260 259 259 257 253 258 250 245 249 255 258 250 245 249 247 249 245 241
74 12 9 358 12 287 59 287 332 133 113 98 94 82 78 68 59 45 38 25 19 20 19 14 11 343 336 298 260 258 259 266 292 291 295 263 262 251 276 259 252 248 252 250 244 245 261 268 254
319 31 341 310 296 328 276 285 282 135 112 101 100 100 89 72 74 56 52 49 22 18 21 20 21 11 320 312 305 291 290 291 322 331 302 308 297 295 264 244 303 255 240 246 241 235 306 316 265
282 308 297 275 193 292 261 179 308 172 131 110 105 105 103 92 83 54 22 55 54 42 37 29 25 25 27 18 355 329 319 292 317 356 359 1 45 56 218 218 257 254 236 239 244 274 312 3 351
45 24 342 348 7 234 330 307 152 89 115 118 116 115 113 112 115 123 18 27 40 44 46 39 27 28 22 20 17 9 2 337 332 1 9 5 21 41 47 120 217 245 265 281 272 289 279 319 281
324 174 151 263 324 309 329 101 154 104 110 117 129 132 134 143 154 159 101 59 52 37 21 359 356 3 4 2 9 8 5 16 28 25 19 12 2 353 4 16 13 337 23 32 276 256 249 266 226
338 343 194 248 277 326 231 68 79 125 130 131 137 148 158 173 171 173 153 120 58 27 356 340 340 349 15 26 31 28 22 18 18 18 21 25 20 4 354 352 8 37 59 50 27 292 278 263 240
171 216 16 350 222 280 314 355 180 151 132 154 153 158 170 179 186 188 186 161 90 21 342 331 5 17 20 43 45 46 37 27 17 6 3 5 4 12 5 352 354 349 356 333 352 299 286 272 276
39 351 21 131 122 181 298 292 122 125 131 133 160 176 185 198 204 209 202 164 178 229 306 247 262 61 70 64 58 49 40 28 20 13 6 2 359 354 346 350 339 347 356 342 330 296 282 268 324
74 38 108 122 287 325 166 268 145 157 167 183 220 234 205 210 202 213 210 192 206 201 315 291 183 208 338 18 3 3 11 5 359 358 356 351 348 355 356 344 324 327 306 299 308 290 292 320 313
Wind_Speed_850mb
28 23 18 30 6 10 6 13 9 17 8 37 42 34 18 13 9 13 51 45 40 51 49 44 39 36 30 29 29 28 27 25 25 25 26 24 23 21 20 21 22 23 25 29 30 30 30 32 37
18 14 7 10 7 3 11 13 18 14 39 69 57 41 18 20 43 47 58 43 45 49 48 44 39 37 32 29 28 28 26 25 24 24 23 21 20 19 17 16 17 18 20 22 23 24 25 27 24
12 6 4 7 7 11 11 13 28 32 31 42 19 35 17 29 45 29 48 46 51 50 46 43 39 36 34 32 30 27 25 23 22 21 19 18 16 15 14 13 13 13 15 16 18 18 18 16 13
10 6 11 2 19 20 17 19 41 11 38 46 49 14 13 19 39 39 54 42 52 54 46 42 38 36 33 31 29 27 25 23 20 19 17 15 14 12 11 9 8 9 11 13 14 14 14 11 9
14 13 4 8 19 7 14 29 9 3 30 57 56 17 19 24 40 51 50 41 44 55 49 43 38 37 34 31 29 26 23 21 19 17 16 15 13 12 10 8 6 5 8 13 14 14 12 12 10
13 6 8 10 18 11 9 15 12 15 31 58 51 30 20 41 54 51 38 27 48 54 50 45 40 37 34 31 29 27 23 21 18 16 15 14 14 13 11 10 8 4 4 11 14 14 14 12 11
13 2 14 16 16 7 10 12 12 9 39 26 40 14 33 49 58 48 28 32 33 45 50 46 43 39 35 32 29 26 23 21 18 16 14 14 13 13 13 12 11 7 4 7 12 13 12 12 11
26 4 15 12 1 4 8 7 9 38 20 43 35 8 31 57 52 47 46 40 31 30 40 47 46 43 40 36 32 28 24 21 18 16 14 13 13 12 13 13 14 12 7 6 10 12 12 11 11
32 9 13 13 23 11 31 20 52 53 58 56 46 44 35 51 58 49 60 43 40 32 29 48 47 44 42 38 34 31 27 23 19 16 13 11 12 15 15 15 11 15 15 15 12 12 14 18 22
10 5 14 6 12 14 33 36 24 32 48 34 42 28 17 41 46 53 62 54 43 36 28 41 47 46 44 41 39 35 31 26 22 19 16 13 14 12 10 7 7 11 16 23 27 25 22 22 14
34 13 12 13 36 33 29 35 25 41 10 51 74 74 8 35 47 53 57 61 51 39 35 27 41 43 44 44 40 38 36 34 31 26 22 20 14 10 3 5 11 8 10 19 21 16 11 4 5
11 24 15 12 28 25 16 21 20 26 30 47 63 68 45 51 51 54 60 62 55 44 41 34 28 31 34 38 33 30 36 35 35 33 29 29 24 16 12 9 11 5 5 8 11 12 11 4 4
7 6 29 13 13 11 15 19 17 10 45 49 44 29 36 40 34 50 49 59 44 33 46 39 44 38 32 35 31 31 25 39 30 30 26 28 33 26 22 19 15 18 14 9 9 13 14 4 7
17 17 21 6 13 10 3 8 9 32 46 45 40 39 40 43 22 23 43 15 9 54 58 55 60 49 44 40 49 45 32 23 28 21 20 17 21 31 33 26 26 24 26 27 20 17 19 12 10
17 11 19 20 20 4 15 12 18 35 50 47 36 56 57 58 57 50 32 50 49 47 45 57 79 57 57 52 37 42 35 28 28 31 27 29 28 24 38 38 39 31 33 26 30 20 34 31 21
5 7 11 24 20 15 15 16 27 50 35 29 39 52 50 56 53 47 34 48 38 27 44 62 68 57 55 51 60 43 41 39 39 43 41 40 41 37 34 49 47 43 43 42 41 41 27 30 34
8 15 14 12 23 12 10 9 15 33 45 51 61 54 45 47 53 54 44 40 44 48 28 33 29 42 56 51 48 60 60 57 56 49 52 48 48 51 50 47 50 49 47 49 46 46 40 38 42
10 8 16 18 10 9 2 12 11 23 37 55 58 51 44 45 51 52 48 42 38 36 24 28 34 20 37 48 49 48 67 68 70 62 61 55 55 59 60 57 50 59 56 55 55 50 41 42 40
11 13 14 7 11 11 8 8 21 1 53 50 54 55 42 40 35 37 45 53 39 34 31 6 14 9 37 39 57 59 50 59 83 79 64 70 65 57 65 66 56 53 62 54 54 54 55 53 49
10 12 17 8 21 14 10 13 19 19 35 50 54 50 40 32 34 35 38 46 54 45 31 24 17 5 14 41 45 43 42 45 53 60 59 66 73 61 64 70 61 55 58 54 54 53 62 61 55
8 14 14 8 14 17 11 17 16 27 56 61 59 46 42 40 35 35 37 44 46 47 46 35 23 18 23 47 49 43 37 43 47 50 63 74 73 78 73 66 65 61 53 56 54 53 57 60 57
8 17 20 20 16 5 12 11 8 31 32 43 52 48 39 34 33 28 28 36 43 46 43 40 34 26 23 23 36 42 39 43 35 33 43 62 61 64 25 33 74 60 58 50 45 45 43 63 67
5 16 14 11 15 10 22 3 11 36 27 28 44 47 35 29 23 22 23 28 32 37 40 38 34 27 22 32 35 40 34 26 29 35 48 43 28 30 35 73 49 48 56 59 55 36 71 78 59
10 8 15 13 6 5 40 16 10 13 32 24 41 43 33 23 21 15 14 9 17 26 35 38 39 35 33 27 22 27 30 39 36 37 31 20 21 9 25 39 38 61 59 54 57 48 39 36 34
7 10 7 10 6 15 20 5 8 23 31 40 37 42 32 21 17 7 3 12 16 20 24 25 29 33 34 36 32 26 25 25 29 36 35 24 18 18 19 8 14 28 14 17 23 48 40 36 35
8 4 8 6 7 12 19 8 5 30 50 52 51 40 28 22 18 11 8 14 17 17 13 17 22 24 28 30 27 26 27 25 26 28 32 31 27 24 21 18 12 10 5 10 10 18 35 46 27
7 5 6 1 7 5 7 8 10 25 26 41 45 44 35 34 31 26 13 6 4 8 10 15 18 20 19 22 23 27 29 31 32 30 29 28 25 25 22 19 15 12 12 16 13 8 17 26 33
13 4 8 6 4 6 7 1 10 15 15 27 31 44 41 36 35 27 12 7 6 6 9 7 5 8 12 15 23 33 37 37 35 33 32 31 26 24 21 19 19 15 13 8 12 11 13 18 17
8 2 4 3 4 5 3 10 11 16 13 14 11 53 50 40 35 28 18 16 10 6 7 8 6 2 14 21 26 31 36 42 44 42 39 34 29 26 19 18 17 16 10 9 8 9 6 5 1
11 5 6 9 10 4 5 10 12 18 24 20 25 19 46 42 37 35 28 24 11 4 8 4 7 5 3 9 15 23 28 35 42 41 39 40 37 33 27 20 17 15 11 12 10 12 15 11 7
Wind_Direction_850mb
299 300 312 300 33 75 248 232 198 243 171 115 91 95 83 340 87 145 157 168 159 151 148 147 144 139 138 135 129 127 126 123 121 118 116 114 112 109 105 105 106 105 107 117 121 121 120 115 109
302 306 274 241 125 293 275 291 273 237 108 110 98 107 75 55 110 139 154 157 157 153 150 148 145 141 140 138 132 132 129 127 124 123 120 118 115 111 109 110 114 117 118 124 130 133 131 119 113
319 327 278 157 186 186 224 231 243 267 121 116 96 99 104 113 128 145 161 154 162 153 152 149 147 144 144 142 137 135 131 128 125 125 122 116 114 113 112 112 117 129 135 139 143 150 155 154 132
350 248 249 149 253 254 186 221 236 160 124 120 117 85 86 115 152 165 155 160 164 153 155 152 150 146 145 143 139 137 133 129 125 123 118 115 112 109 108 110 119 136 158 165 166 163 161 162 164
300 269 248 265 265 253 170 200 312 339 130 112 106 116 98 112 160 159 158 162 169 154 156 156 155 151 150 147 142 137 132 129 125 120 119 117 109 101 96 96 108 138 168 181 186 187 181 173 165
280 257 3 277 281 236 79 60 7 352 135 112 107 106 94 130 149 152 159 166 173 159 160 161 159 157 154 153 149 146 140 132 127 123 118 109 100 90 84 77 76 94 157 182 186 194 200 198 190
228 53 243 267 284 9 109 95 1 49 65 99 127 102 127 140 148 149 154 163 146 163 167 167 165 164 162 161 159 155 152 147 140 133 122 110 99 85 72 71 74 76 118 172 185 188 194 200 200
253 142 314 310 202 158 95 89 34 54 34 101 81 89 140 149 155 152 160 166 169 175 182 175 174 172 171 170 169 167 167 165 159 152 141 126 109 92 79 84 78 73 88 142 172 176 174 173 163
275 27 299 293 28 332 31 56 66 83 77 82 87 113 137 154 157 159 163 172 181 187 198 187 182 180 179 178 179 180 181 180 178 171 163 146 134 100 105 88 95 94 96 101 119 137 145 142 141
169 146 253 295 49 17 7 33 31 89 91 78 85 100 94 157 166 166 168 173 194 194 192 202 193 188 187 188 190 189 192 193 192 189 182 172 169 152 97 48 61 106 113 110 109 115 123 134 136
253 217 254 49 45 27 349 20 0 109 53 131 128 110 347 184 186 179 183 182 198 209 213 206 203 199 198 195 199 202 202 203 204 203 198 193 204 193 130 357 86 101 137 129 122 120 124 165 228
264 275 315 347 51 13 346 16 335 84 152 137 144 161 173 197 191 199 193 188 187 205 216 213 218 200 207 212 197 213 222 219 216 216 205 200 207 208 196 240 171 134 140 118 160 166 180 328 213
181 326 307 28 9 330 331 348 316 77 140 145 155 164 170 186 237 324 229 186 166 171 207 223 221 211 212 220 215 223 238 231 221 230 219 201 194 201 220 238 212 235 238 224 190 197 191 210 166
3 357 343 10 288 299 182 291 286 279 164 157 165 168 120 98 193 323 25 182 231 195 198 215 223 218 203 220 225 228 237 241 215 228 226 224 218 211 214 229 243 237 243 255 260 242 227 223 261
5 6 319 282 249 159 81 323 268 262 155 159 177 101 86 86 90 85 99 70 209 219 238 222 211 215 200 207 219 222 228 253 232 238 249 241 242 238 215 220 222 226 237 243 251 252 238 235 266
274 272 255 266 203 161 118 274 261 238 123 103 73 73 52 47 54 56 64 56 75 191 231 204 214 213 217 209 212 215 210 220 231 231 239 243 244 251 248 224 224 217 219 215 226 236 229 240 257
283 242 233 311 135 146 148 275 5 122 116 91 78 66 49 34 30 29 31 21 11 40 159 186 192 195 202 218 224 233 225 224 221 219 227 238 246 249 248 249 236 223 222 224 231 230 239 243 252
333 292 309 148 178 112 33 305 322 149 114 96 86 74 56 37 23 13 16 20 0 4 19 187 200 224 317 251 235 240 242 236 230 228 228 234 245 249 250 251 250 228 223 227 228 229 226 244 254
326 343 338 83 141 117 130 275 289 175 105 94 84 74 60 40 26 19 13 18 12 358 15 315 314 287 242 259 253 242 251 256 246 244 248 236 241 250 247 252 252 232 224 231 235 236 237 239 249
345 324 305 7 20 56 16 290 284 78 99 94 90 77 64 53 41 28 18 18 11 16 13 9 14 239 222 226 248 252 263 276 262 257 258 247 242 246 242 250 248 246 239 234 235 240 231 231 242
4 36 8 17 4 347 352 292 258 100 103 95 86 82 67 59 51 34 22 19 14 18 16 13 351 346 216 224 235 242 255 260 259 259 257 253 258 250 245 249 255 258 250 245 249 247 249 245 241
74 12 9 358 12 287 59 287 332 133 113 98 94 82 78 68 59 45 38 25 19 20 19 14 11 343 336 298 260 258 259 266 292 291 295 263 262 251 276 259 252 248 252 250 244 245 261 268 254
319 31 341 310 296 328 276 285 282 135 112 101 100 100 89 72 74 56 52 49 22 18 21 20 21 11 320 312 305 291 290 291 322 331 302 308 297 295 264 244 303 255 240 246 241 235 306 316 265
282 308 297 275 193 292 261 179 308 172 131 110 105 105 103 92 83 54 22 55 54 42 37 29 25 25 27 18 355 329 319 292 317 356 359 1 45 56 218 218 257 254 236 239 244 274 312 3 351
45 24 342 348 7 234 330 307 152 89 115 118 116 115 113 112 115 123 18 27 40 44 46 39 27 28 22 20 17 9 2 337 332 1 9 5 21 41 47 120 217 245 265 281 272 289 279 319 281
324 174 151 263 324 309 329 101 154 104 110 117 129 132 134 143 154 159 101 59 52 37 21 359 356 3 4 2 9 8 5 16 28 25 19 12 2 353 4 16 13 337 23 32 276 256 249 266 226
338 343 194 248 277 326 231 68 79 125 130 131 137 148 158 173 171 173 153 120 58 27 356 340 340 349 15 26 31 28 22 18 18 18 21 25 20 4 354 352 8 37 59 50 27 292 278 263 240
171 216 16 350 222 280 314 355 180 151 132 154 153 158 170 179 186 188 186 161 90 21 342 331 5 17 20 43 45 46 37 27 17 6 3 5 4 12 5 352 354 349 356 333 352 299 286 272 276
39 351 21 131 122 181 298 292 122 125 131 133 160 176 185 198 204 209 202 164 178 229 306 247 262 61 70 64 58 49 40 28 20 13 6 2 359 354 346 350 339 347 356 342 330 296 282 268 324
74 38 108 122 287 325 166 268 145 157 167 183 220 234 205 210 202 213 210 192 206 201 315 291 183 208 338 18 3 3 11 5 359 358 356 351 348 355 356 344 324 327 306 299 308 290 292 320 313